COSMOS 1275 DEB, 12664

Orbit data source: Space-Track

COSMOS 1275 DEB, 12664 is space debris in LEO originally from a launch on Thu, 04 Jun 1981 UTC launched from the Plesetsk Missile And Space Complex (PKMTR). Debris objects in space refer to the collection of defunct objects orbiting the Earth. Examples of debris include non-operational satellites, rocket bodies, and fragments generated from explosions, collisions, or faulty payload assembly.

Loading next visibility...
Identifier
12664, 1981-053U
Orbit
LEO
Country
Flag of CISCIS
Related business
Manufacturer
Unknown
Mission
Spacecraft
Bus & Motor
Unknown
Mass
Unknown
Launch date (UTC)
1981-06-04 (45 years ago)
Launch vehicle
Unknown
Launch site
Plesetsk Missile And Space Complex (PKMTR)
Object type
Payload
Rocket body
Debris
Shape & HBR
Unknown shape, 0.3 m
Radar Cross Section
Medium (>0.1 m² and <1 m²)

Expand to show TLE details & history
Last TLE update: 1 day ago

TLE from 1 day ago
0 COSMOS 1275 DEB
1 12664U 81053U   26171.34342920  .00000450  00000-0  45145-3 0  9991
2 12664  82.8917 268.7931 0076146 269.5209 152.7020 13.74482380242644
Epoch: 2026-06-20T08:14Z
TLE epoch observation values (Epoch: 2026-06-20T08:14:32.282Z)
Latitude
61.87125°
Longitude
-109.98205°
Altitude
1,044.03 km
Speed
7.311 km/s
True Right ascension
18h 48m 50s
True Declination
61° 44' 01"
Sunlit
Object was in daylight at epoch
Visualization orbit readout
Latitude
Unknown
Longitude
Unknown
Altitude
Unknown
Speed
Unknown
Apparent Right ascension
Unknown
Apparent Declination
Unknown
Sunlit
N/A
Visualization observer readout
Local Sidereal Time
06:12:34
Azimuth
Unknown
Elevation
Unknown
Doppler factor
Unknown
Orbital elements
Apogee altitude
1,036.708 km
Perigee altitude
924.639 km
Semi-major axis
7,358.811 km
Eccentricity
0.00761
Inclination
82.8917°
RAAN
268.7931°
Arg. of periapsis
269.5209°
True anomaly
153.09882°
Mean anomaly
152.702°
Eccentric anomaly
152.90074°
Mean motion
3.4382 °/min
Orbital period
104.71 mins
BSTAR
0.00045145
Loading maneuver chart data...
Computing Atmospheric mass density...

Documentation

Showing up to 5 results
|